Tracking 20945 objects as of 8-Jul-2020
HD Live streaming from Space Station
objects crossing your sky now

DELTA 1 DEB

Track DELTA 1 DEB now!
10-day predictions


NORAD ID: 12825
Int'l Code: 1978-026EW
Perigee: 878.5 km
Apogee: 966.1 km
Inclination: 99.4 °
Period: 103.3 minutes
Semi major axis: 7293 km
RCS: 0.046 m2 (small)
Launch date: March 5, 1978
Source: United States (US)
Launch site: AIR FORCE WESTERN TEST RANGE (AFWTR)

Note: This is SATELLITE DEBRIS
aabbcc
Your satellite tracking list
Your tracking list is empty




NASA's NSSDC Master Catalog

Two Line Element Set (TLE):
1 12825U 78026EW  20190.37836243 +.00000115 +00000-0 +12093-3 0  9994
2 12825 099.4275 343.8781 0060096 235.0087 188.0406 13.93856520002591
Source of the keplerian elements: AFSPC